Location: Dodge City Community College Clyde Tombaugh Astronomy Center
(37.7756°N, 100.0412°W)
Time: 20:32:24
(UTC+00:00)

Cosmos 923 Rocket - Pass Details

Date: 08 December 2021
Orbit: 757 x 786 km, 74.0° (Epoch: 17 January)

Event Time Altitude Azimuth Distance (km) Brightness Sun altitude
Rises 13:07:16 0° 344° (NNW) 3,280 6.9 -7.2°
Reaches altitude 10° 13:09:40 10° 346° (NNW) 2,350 6.2 -6.8°
Maximum altitude 13:15:01 71° 71° (ENE) 832 4.4 -5.8°
Drops below altitude 10° 13:20:19 10° 155° (SSE) 2,335 7.4 -4.9°
Sets 13:22:42 0° 158° (SSE) 3,258 8.1 -4.5°
